�������l�o���
Date,Time,MP-1(��Sv/h),MP-2(��Sv/h),MP-3(��Sv/h),MP-4(��Sv/h),MP-5(��Sv/h),MP-6(��Sv/h),MP-7(��Sv/h),����,����(m/s),���J
2015/10/10,00:00,0.503,0.289,0.525,0.481,0.455,0.236,0.206,��,6.2,��
2015/10/10,00:10,0.502,0.290,0.525,0.481,0.459,0.235,0.205,���쐼,7.1,��
2015/10/10,00:20,0.503,0.289,0.525,0.481,0.455,0.234,0.205,���쐼,8.6,��
2015/10/10,00:30,0.502,0.289,0.527,0.480,0.460,0.234,0.204,��,8.6,��
2015/10/10,00:40,0.505,0.290,0.522,0.480,0.456,0.235,0.205,��,7.0,��
2015/10/10,00:50,0.503,0.289,0.529,0.478,0.460,0.235,0.204,��,7.7,��
2015/10/10,01:00,0.505,0.290,0.522,0.482,0.455,0.235,0.206,��,8.6,��
2015/10/10,01:10,0.501,0.288,0.528,0.479,0.458,0.234,0.205,��,7.9,��
2015/10/10,01:20,0.504,0.290,0.522,0.482,0.454,0.235,0.206,��,5.6,��
2015/10/10,01:30,0.504,0.288,0.527,0.480,0.457,0.235,0.205,��,2.8,��
2015/10/10,01:40,0.505,0.289,0.525,0.482,0.455,0.235,0.205,���k��,2.6,��
2015/10/10,01:50,0.503,0.291,0.528,0.479,0.460,0.234,0.205,��,1.4,��
2015/10/10,02:00,0.505,0.289,0.526,0.486,0.456,0.235,0.205,���쐼,1.1,��
2015/10/10,02:10,0.502,0.291,0.527,0.478,0.460,0.235,0.206,���쐼,1.5,��
2015/10/10,02:20,0.502,0.290,0.523,0.483,0.455,0.236,0.205,�쐼,1.4,��
2015/10/10,02:30,0.503,0.289,0.528,0.479,0.460,0.236,0.205,�쐼,0.9,��
2015/10/10,02:40,0.502,0.289,0.526,0.483,0.457,0.235,0.206,���쐼,0.8,��
2015/10/10,02:50,0.505,0.290,0.528,0.481,0.458,0.236,0.205,�쐼,1.5,��
2015/10/10,03:00,0.503,0.290,0.525,0.483,0.457,0.236,0.206,��쐼,2.2,��
2015/10/10,03:10,0.505,0.289,0.528,0.481,0.458,0.235,0.205,�쐼,2.2,��
2015/10/10,03:20,0.501,0.291,0.527,0.483,0.458,0.237,0.205,��쐼,2.6,��
2015/10/10,03:30,0.505,0.288,0.526,0.480,0.456,0.234,0.205,��쐼,2.8,��
2015/10/10,03:40,0.501,0.290,0.525,0.482,0.461,0.235,0.205,��쐼,3.4,��
2015/10/10,03:50,0.506,0.289,0.527,0.481,0.456,0.234,0.205,��쐼,3.9,��
2015/10/10,04:00,0.502,0.289,0.524,0.480,0.459,0.236,0.206,��쐼,2.9,��
2015/10/10,04:10,0.504,0.289,0.528,0.483,0.455,0.236,0.204,��,3.3,��
2015/10/10,04:20,0.501,0.289,0.526,0.480,0.458,0.235,0.206,��,3.0,��
2015/10/10,04:30,0.505,0.290,0.527,0.481,0.457,0.235,0.205,��쐼,3.5,��
2015/10/10,04:40,0.500,0.288,0.524,0.478,0.459,0.235,0.206,��쐼,2.9,��
2015/10/10,04:50,0.504,0.291,0.525,0.483,0.454,0.235,0.206,��쐼,2.6,��
2015/10/10,05:00,0.501,0.289,0.526,0.478,0.458,0.236,0.204,��,2.7,��
2015/10/10,05:10,0.505,0.290,0.527,0.482,0.455,0.234,0.206,��,3.4,��
2015/10/10,05:20,0.502,0.290,0.525,0.479,0.459,0.235,0.206,��쐼,2.3,��
2015/10/10,05:30,0.505,0.288,0.526,0.483,0.458,0.235,0.204,��쐼,3.9,��
2015/10/10,05:40,0.503,0.289,0.525,0.479,0.456,0.234,0.205,��쐼,2.9,��
2015/10/10,05:50,0.504,0.289,0.526,0.483,0.458,0.235,0.205,��쐼,2.6,��
2015/10/10,06:00,0.504,0.291,0.524,0.479,0.456,0.234,0.206,��쐼,3.6,��
2015/10/10,06:10,0.503,0.289,0.529,0.481,0.458,0.235,0.205,�쐼,3.1,��
2015/10/10,06:20,0.503,0.290,0.523,0.481,0.456,0.235,0.205,��쐼,3.5,��
2015/10/10,06:30,0.503,0.289,0.527,0.481,0.459,0.235,0.205,��쐼,3.9,��
2015/10/10,06:40,0.501,0.288,0.524,0.478,0.456,0.235,0.205,��쐼,3.2,��
2015/10/10,06:50,0.501,0.289,0.528,0.481,0.460,0.235,0.205,��쐼,2.8,��
2015/10/10,07:00,0.503,0.289,0.524,0.479,0.455,0.236,0.206,�쐼,3.5,��
2015/10/10,07:10,0.502,0.290,0.527,0.483,0.458,0.234,0.206,�쐼,3.3,��
2015/10/10,07:20,0.503,0.288,0.524,0.480,0.455,0.235,0.205,���쐼,2.8,��
2015/10/10,07:30,0.501,0.291,0.529,0.482,0.456,0.235,0.206,���쐼,2.2,��
2015/10/10,07:40,0.502,0.289,0.524,0.478,0.458,0.235,0.204,�쐼,1.9,��
2015/10/10,07:50,0.502,0.290,0.527,0.485,0.456,0.233,0.206,��쐼,2.6,��
2015/10/10,08:00,0.504,0.288,0.525,0.477,0.458,0.235,0.205,��쐼,1.9,��
2015/10/10,08:10,0.503,0.291,0.526,0.481,0.451,0.236,0.204,��쐼,2.7,��
2015/10/10,08:20,0.501,0.289,0.524,0.479,0.459,0.236,0.203,��,3.3,��
2015/10/10,08:30,0.504,0.287,0.524,0.477,0.456,0.235,0.203,��쐼,3.2,��
2015/10/10,08:40,0.499,0.288,0.528,0.483,0.454,0.235,0.202,��쐼,2.4,��
2015/10/10,08:50,0.504,0.289,0.523,0.478,0.459,0.234,0.206,��쐼,1.6,��
2015/10/10,09:00,0.501,0.286,0.527,0.474,0.456,0.234,0.205,��쐼,1.6,��
2015/10/10,09:10,0.497,0.286,0.525,0.481,0.451,0.234,0.205,�쐼,3.3,��
2015/10/10,09:20,0.505,0.289,0.522,0.481,0.458,0.234,0.205,�쐼,2.5,��
2015/10/10,09:30,0.501,0.290,0.527,0.478,0.456,0.235,0.204,��쐼,2.0,��
2015/10/10,09:40,0.499,0.286,0.524,0.475,0.455,0.234,0.203,��,2.0,��
2015/10/10,09:50,0.496,0.287,0.522,0.474,0.450,0.233,0.204,��,2.3,��
2015/10/10,10:00,0.504,0.290,0.528,0.477,0.454,0.234,0.205,��,2.2,��
2015/10/10,10:10,0.505,0.290,0.525,0.483,0.460,0.235,0.205,��,2.1,��
2015/10/10,10:20,0.500,0.289,0.520,0.480,0.457,0.233,0.205,��,2.0,��
2015/10/10,10:30,0.497,0.288,0.527,0.478,0.454,0.234,0.203,��,2.6,��
2015/10/10,10:40,0.505,0.289,0.525,0.475,0.453,0.235,0.205,��쓌,1.5,��
2015/10/10,10:50,0.505,0.290,0.519,0.484,0.461,0.235,0.206,��쓌,1.1,��
2015/10/10,11:00,0.502,0.289,0.528,0.482,0.458,0.234,0.205,��쓌,1.0,��
2015/10/10,11:10,0.500,0.288,0.526,0.479,0.455,0.234,0.204,��쓌,1.0,��
2015/10/10,11:20,0.498,0.286,0.521,0.478,0.454,0.236,0.204,��,2.5,��
2015/10/10,11:30,0.497,0.287,0.520,0.474,0.450,0.236,0.204,��,3.4,��
2015/10/10,11:40,0.505,0.291,0.525,0.477,0.456,0.235,0.206,��쓌,1.6,��
2015/10/10,11:50,0.505,0.290,0.526,0.483,0.459,0.233,0.204,��,2.6,��
2015/10/10,12:00,0.499,0.288,0.526,0.481,0.459,0.233,0.204,��쓌,3.1,��
2015/10/10,12:10,0.499,0.287,0.520,0.478,0.455,0.236,0.203,��쓌,3.3,��
2015/10/10,12:20,0.506,0.290,0.528,0.477,0.452,0.235,0.206,��,3.6,��
2015/10/10,12:30,0.504,0.289,0.529,0.484,0.460,0.233,0.205,��,3.9,��
2015/10/10,12:40,0.501,0.290,0.521,0.482,0.459,0.234,0.204,��,4.5,��
2015/10/10,12:50,0.501,0.287,0.523,0.479,0.455,0.235,0.203,��,4.3,��
2015/10/10,13:00,0.505,0.290,0.527,0.478,0.454,0.235,0.205,��,4.1,��
2015/10/10,13:10,0.501,0.292,0.523,0.485,0.460,0.234,0.206,��,4.0,��
2015/10/10,13:20,0.498,0.289,0.523,0.483,0.457,0.234,0.203,��,3.6,��
2015/10/10,13:30,0.507,0.287,0.531,0.478,0.453,0.235,0.205,��,4.0,��
2015/10/10,13:40,0.505,0.290,0.525,0.484,0.461,0.235,0.205,��,3.9,��
2015/10/10,13:50,0.500,0.288,0.522,0.484,0.461,0.234,0.205,��,3.4,��
2015/10/10,14:00,0.509,0.288,0.530,0.479,0.455,0.234,0.205,��,3.6,��
2015/10/10,14:10,0.504,0.291,0.525,0.478,0.457,0.235,0.207,��,3.6,��
2015/10/10,14:20,0.500,0.289,0.522,0.485,0.461,0.234,0.205,��,3.4,��
2015/10/10,14:30,0.508,0.289,0.529,0.479,0.455,0.234,0.204,��,3.3,��
2015/10/10,14:40,0.504,0.291,0.526,0.479,0.455,0.234,0.207,��,3.3,��
2015/10/10,14:50,0.500,0.288,0.523,0.486,0.461,0.235,0.205,��,2.1,��
2015/10/10,15:00,0.508,0.290,0.529,0.480,0.454,0.234,0.204,��,1.5,��
2015/10/10,15:10,0.502,0.290,0.525,0.480,0.457,0.234,0.206,��,1.1,��
2015/10/10,15:20,0.503,0.288,0.524,0.484,0.462,0.234,0.204,��,1.9,��
2015/10/10,15:30,0.506,0.290,0.528,0.480,0.455,0.235,0.205,��쐼,1.9,��
2015/10/10,15:40,0.499,0.289,0.522,0.480,0.456,0.236,0.206,��,1.4,��
2015/10/10,15:50,0.503,0.288,0.526,0.486,0.461,0.235,0.204,��,0.7,��
2015/10/10,16:00,0.504,0.291,0.530,0.478,0.453,0.235,0.207,��쐼,1.9,��
2015/10/10,16:10,0.500,0.289,0.523,0.482,0.458,0.234,0.204,��,1.4,��
2015/10/10,16:20,0.507,0.291,0.529,0.481,0.459,0.236,0.205,��,1.6,��
2015/10/10,16:30,0.504,0.289,0.525,0.480,0.454,0.235,0.205,��,2.5,��
2015/10/10,16:40,0.502,0.290,0.524,0.484,0.460,0.235,0.205,��,2.3,��
2015/10/10,16:50,0.506,0.289,0.528,0.480,0.456,0.235,0.205,��,2.1,��
2015/10/10,17:00,0.502,0.289,0.525,0.484,0.458,0.234,0.205,��,2.9,��
2015/10/10,17:10,0.506,0.291,0.530,0.485,0.459,0.236,0.206,��,3.1,��
2015/10/10,17:20,0.504,0.288,0.525,0.479,0.457,0.234,0.204,��,2.5,��
2015/10/10,17:30,0.502,0.291,0.525,0.485,0.459,0.236,0.205,��,2.2,��
2015/10/10,17:40,0.505,0.290,0.529,0.479,0.455,0.234,0.205,��,1.1,��
2015/10/10,17:50,0.503,0.290,0.524,0.484,0.460,0.235,0.206,��,2.7,��
2015/10/10,18:00,0.507,0.289,0.530,0.481,0.455,0.235,0.205,��쓌,1.2,��
2015/10/10,18:10,0.502,0.291,0.524,0.482,0.460,0.235,0.205,��쓌,1.9,��
2015/10/10,18:20,0.507,0.289,0.529,0.483,0.458,0.235,0.206,�쓌,1.0,��
2015/10/10,18:30,0.502,0.290,0.527,0.483,0.458,0.235,0.206,��,3.0,��
2015/10/10,18:40,0.506,0.291,0.528,0.486,0.460,0.235,0.206,��쐼,3.3,��
2015/10/10,18:50,0.506,0.292,0.528,0.482,0.456,0.235,0.205,��쐼,3.8,��
2015/10/10,19:00,0.503,0.290,0.525,0.485,0.460,0.235,0.206,��쐼,3.9,��
2015/10/10,19:10,0.507,0.290,0.527,0.481,0.454,0.236,0.207,��쐼,4.2,��
2015/10/10,19:20,0.501,0.289,0.526,0.487,0.461,0.237,0.206,��쐼,4.0,��
2015/10/10,19:30,0.509,0.289,0.530,0.481,0.456,0.236,0.207,��쐼,2.5,��
2015/10/10,19:40,0.502,0.291,0.523,0.485,0.460,0.236,0.206,��쐼,3.1,��
2015/10/10,19:50,0.506,0.290,0.530,0.483,0.456,0.234,0.207,��쐼,2.9,��
2015/10/10,20:00,0.502,0.290,0.524,0.483,0.459,0.236,0.206,��쐼,2.5,��
2015/10/10,20:10,0.506,0.290,0.529,0.484,0.458,0.235,0.206,��,2.8,��
2015/10/10,20:20,0.504,0.290,0.527,0.481,0.457,0.236,0.207,��,2.8,��
2015/10/10,20:30,0.505,0.290,0.526,0.484,0.460,0.236,0.207,��쐼,4.3,��
2015/10/10,20:40,0.506,0.291,0.528,0.481,0.456,0.237,0.207,��,4.9,��
2015/10/10,20:50,0.503,0.290,0.526,0.485,0.462,0.236,0.207,��,5.6,��
2015/10/10,21:00,0.508,0.291,0.528,0.479,0.456,0.236,0.206,��쐼,5.8,��
2015/10/10,21:10,0.503,0.290,0.524,0.487,0.460,0.235,0.208,��,5.1,��
2015/10/10,21:20,0.507,0.290,0.530,0.480,0.455,0.235,0.206,��,5.6,��
2015/10/10,21:30,0.501,0.290,0.524,0.485,0.462,0.235,0.207,��,6.2,��
2015/10/10,21:40,0.508,0.291,0.528,0.480,0.456,0.237,0.206,��,6.8,��
2015/10/10,21:50,0.502,0.289,0.527,0.484,0.463,0.236,0.207,��,5.9,��
2015/10/10,22:00,0.506,0.291,0.529,0.480,0.456,0.236,0.205,��쐼,5.1,��
2015/10/10,22:10,0.502,0.288,0.527,0.483,0.459,0.235,0.207,��쐼,5.5,��
2015/10/10,22:20,0.505,0.289,0.527,0.481,0.458,0.236,0.206,��쐼,3.9,��
2015/10/10,22:30,0.502,0.288,0.526,0.482,0.457,0.236,0.206,�쐼,4.0,��
2015/10/10,22:40,0.504,0.292,0.528,0.482,0.460,0.236,0.206,�쐼,3.9,��
2015/10/10,22:50,0.504,0.290,0.528,0.481,0.456,0.235,0.206,�쐼,4.3,��
2015/10/10,23:00,0.503,0.290,0.527,0.483,0.461,0.235,0.207,��쐼,3.6,��
2015/10/10,23:10,0.506,0.290,0.528,0.480,0.456,0.236,0.206,��,1.9,��
2015/10/10,23:20,0.500,0.291,0.523,0.484,0.461,0.236,0.207,��쓌,3.8,��
2015/10/10,23:30,0.506,0.288,0.529,0.481,0.456,0.235,0.206,��,4.2,��
2015/10/10,23:40,0.501,0.290,0.524,0.486,0.461,0.237,0.205,��,6.0,��
2015/10/10,23:50,0.506,0.290,0.531,0.480,0.455,0.236,0.205,��,7.1,��
